Вернуться в каталог

STARLINK-32351

АктивенСвязьVLEO
NORAD 61529·PAYLOAD·🇺🇸 United States

Запущен Oct 15, 2024 с Cape Canaveral Space Force Station

Loading…

Ближайшие Пролёты (ближайшие 24 часа)

TLE

СвежийSource: CelesTrak SupGP

Эпоха: Sep 14, 2026, 21:25 UTC

1 61529C 24183W   26257.89284722 -.00010054  00000+0 -29710-3 0  2575
2 61529  53.1583 339.6390 0001262  80.1746  26.3311 15.34391506    14

Отслеживайте STARLINK-32351 в реальном времени с AllMySat

Download on the App Store